TimeEDT,TemperatureF,Dew PointF,Humidity,Sea Level PressureIn,VisibilityMPH,Wind Direction,Wind SpeedMPH,Gust SpeedMPH,PrecipitationIn,Events,Conditions,WindDirDegrees,DateUTC
12:52 AM,62.1,60.1,93,29.32,4.0,ESE,8.1,-,0.14,Rain,Light Rain,110,2012-10-30 04:52:00
1:01 AM,62.6,60.8,94,29.32,7.0,SE,10.4,-,0.00,Rain,Light Rain,130,2012-10-30 05:01:00
1:15 AM,62.6,60.8,94,29.33,10.0,ESE,9.2,-,0.00,,Overcast,110,2012-10-30 05:15:00
1:43 AM,62.6,59.0,88,29.33,9.0,East,9.2,-,0.00,,Overcast,100,2012-10-30 05:43:00
1:52 AM,62.1,59.0,90,29.34,8.0,East,15.0,19.6,0.00,,Overcast,100,2012-10-30 05:52:00
1:59 AM,62.6,59.0,88,29.34,8.0,ESE,10.4,19.6,N/A,,Overcast,110,2012-10-30 05:59:00
2:52 AM,62.1,59.0,90,29.36,8.0,East,11.5,20.7,0.01,,Overcast,100,2012-10-30 06:52:00
3:08 AM,60.8,59.0,94,29.36,4.0,East,10.4,-,0.02,Rain,Light Rain,100,2012-10-30 07:08:00
3:21 AM,62.6,59.0,88,29.36,7.0,East,13.8,24.2,0.03,Rain,Rain,100,2012-10-30 07:21:00
3:52 AM,61.0,57.9,90,29.37,9.0,East,11.5,17.3,0.03,,Overcast,100,2012-10-30 07:52:00
4:04 AM,60.8,57.2,88,29.37,8.0,ESE,13.8,19.6,0.00,Rain,Light Rain,110,2012-10-30 08:04:00
4:52 AM,59.0,55.0,87,29.39,10.0,East,9.2,17.3,0.00,,Partly Cloudy,100,2012-10-30 08:52:00
5:52 AM,59.0,55.9,90,29.42,10.0,East,4.6,-,0.00,Rain,Light Rain,100,2012-10-30 09:52:00
6:52 AM,59.0,55.9,90,29.46,10.0,ESE,9.2,-,0.06,,Overcast,120,2012-10-30 10:52:00
7:52 AM,57.9,55.0,90,29.48,6.0,ESE,3.5,-,0.01,Rain,Light Rain,120,2012-10-30 11:52:00
8:02 AM,57.2,55.4,94,29.48,2.5,SSE,4.6,-,0.03,Rain,Rain,150,2012-10-30 12:02:00
8:09 AM,57.2,55.4,94,29.50,2.0,South,5.8,-,0.05,Rain,Heavy Rain,170,2012-10-30 12:09:00
8:16 AM,57.2,55.4,94,29.50,1.5,ESE,3.5,-,0.11,Rain,Heavy Rain,120,2012-10-30 12:16:00
8:29 AM,57.2,55.4,94,29.50,3.0,Variable,5.8,-,0.14,Rain,Light Rain,0,2012-10-30 12:29:00
8:43 AM,59.0,55.4,88,29.51,9.0,SE,5.8,-,0.14,Rain,Light Rain,140,2012-10-30 12:43:00
8:52 AM,59.0,55.9,90,29.52,10.0,SE,4.6,-,0.15,Rain,Light Rain,130,2012-10-30 12:52:00
9:49 AM,60.8,57.2,88,29.54,10.0,SE,8.1,-,0.00,,Overcast,130,2012-10-30 13:49:00
9:52 AM,60.1,57.0,90,29.54,10.0,SE,6.9,-,0.00,,Overcast,130,2012-10-30 13:52:00
10:36 AM,62.6,57.2,82,29.55,10.0,SE,9.2,-,N/A,,Mostly Cloudy,130,2012-10-30 14:36:00
10:44 AM,62.6,57.2,82,29.55,10.0,SE,8.1,-,N/A,,Mostly Cloudy,130,2012-10-30 14:44:00
10:52 AM,62.1,57.9,86,29.55,10.0,SE,8.1,-,N/A,,Mostly Cloudy,130,2012-10-30 14:52:00
11:03 AM,62.6,57.2,82,29.55,10.0,ESE,8.1,-,N/A,,Overcast,120,2012-10-30 15:03:00
11:49 AM,64.4,57.2,77,29.55,10.0,SE,12.7,18.4,0.00,,Mostly Cloudy,130,2012-10-30 15:49:00
11:52 AM,64.9,55.9,73,29.56,10.0,ESE,12.7,19.6,0.00,,Mostly Cloudy,120,2012-10-30 15:52:00
12:52 PM,66.0,55.0,68,29.55,10.0,SE,11.5,18.4,N/A,,Mostly Cloudy,130,2012-10-30 16:52:00
1:52 PM,66.9,54.0,63,29.55,10.0,ESE,15.0,20.7,0.00,Rain,Light Rain,120,2012-10-30 17:52:00
2:52 PM,66.0,52.0,60,29.55,10.0,ESE,12.7,21.9,0.00,,Mostly Cloudy,120,2012-10-30 18:52:00
3:52 PM,66.0,51.1,59,29.54,10.0,ESE,10.4,-,N/A,,Overcast,120,2012-10-30 19:52:00
4:52 PM,62.1,57.9,86,29.54,7.0,SW,5.8,-,0.02,Rain,Light Rain,220,2012-10-30 20:52:00
5:40 PM,60.8,57.2,88,29.55,2.5,SSE,4.6,-,0.11,Rain,Heavy Rain,150,2012-10-30 21:40:00
5:47 PM,59.0,57.2,94,29.55,1.0,SE,5.8,-,0.36,Rain,Heavy Rain,140,2012-10-30 21:47:00
5:52 PM,59.0,57.9,96,29.55,0.8,SE,8.1,20.7,0.64,Rain,Heavy Rain,140,2012-10-30 21:52:00
5:58 PM,59.0,57.2,94,29.55,1.2,SE,10.4,20.7,0.03,Rain,Heavy Rain,140,2012-10-30 21:58:00
6:02 PM,60.8,57.2,88,29.55,2.5,SE,10.4,-,0.06,Rain,Heavy Rain,140,2012-10-30 22:02:00
6:09 PM,59.0,57.2,94,29.56,3.0,SE,5.8,-,0.08,Rain,Heavy Rain,130,2012-10-30 22:09:00
7:27 PM,57.2,55.4,94,29.56,2.5,SSE,6.9,-,0.13,Rain,Heavy Rain,150,2012-10-30 23:27:00
7:40 PM,57.2,55.4,94,29.55,6.0,Calm,Calm,-,0.16,Rain,Light Rain,0,2012-10-30 23:40:00
8:49 PM,55.4,55.4,100,29.53,4.0,NE,5.8,-,0.10,Rain-Thunderstorm,Heavy Rain,40,2012-10-31 00:49:00
8:52 PM,55.9,54.0,93,29.53,4.0,NE,4.6,-,0.11,Rain-Thunderstorm,Heavy Rain,40,2012-10-31 00:52:00
9:04 PM,55.4,53.6,94,29.51,6.0,Variable,4.6,-,0.04,Rain,Rain,0,2012-10-31 01:04:00
9:22 PM,55.4,53.6,94,29.53,10.0,Calm,Calm,-,0.05,Rain,Light Rain,0,2012-10-31 01:22:00
9:49 PM,55.4,53.6,94,29.57,10.0,SE,6.9,-,0.05,,Mostly Cloudy,140,2012-10-31 01:49:00
9:52 PM,55.9,54.0,93,29.57,10.0,ESE,5.8,-,0.05,,Mostly Cloudy,120,2012-10-31 01:52:00
10:06 PM,55.4,53.6,94,29.56,10.0,ESE,3.5,-,N/A,,Overcast,110,2012-10-31 02:06:00
10:52 PM,55.9,54.0,93,29.57,10.0,Calm,Calm,-,N/A,,Overcast,0,2012-10-31 02:52:00
11:52 PM,55.0,54.0,96,29.57,10.0,Calm,Calm,-,N/A,,Overcast,0,2012-10-31 03:52:00